Location: Theodore Roosevelt Nature Center
(40.5943°N, 73.5104°W)
Time: 07:55:15
(UTC-05:00)

Oscar 11 - Visible Passes

Search period start: 10 December 2019 00:00
Search period end: 20 December 2019 00:00
Orbit: 612 x 626 km, 97.6° (Epoch: 09 December)

Date Brightness Start Highest point End Pass type
(mag) Time Alt. Az. Time Alt. Az. Time Alt. Az.
10 Dec 9.8 06:09:42 10° NE 06:13:04 22° E 06:16:24 10° SE visible
10 Dec 8.5 17:04:38 10° ESE 17:07:23 17° ENE 17:10:09 10° NNE visible
10 Dec 8.2 18:39:04 10° S 18:43:10 43° W 18:47:17 10° NNW visible
11 Dec 9.0 06:26:20 10° NNE 06:30:15 33° E 06:34:09 10° SSE visible
11 Dec 8.0 17:20:49 10° ESE 17:24:20 25° ENE 17:27:51 10° NNE visible
11 Dec 9.1 18:56:38 10° SSW 19:00:20 28° W 19:04:04 10° NW visible
12 Dec 7.5 17:37:20 10° SE 17:41:18 37° ENE 17:45:17 10° N visible
12 Dec 9.7 19:14:33 10° SW 19:17:33 18° W 19:20:33 10° NW visible
13 Dec 7.0 17:54:06 10° SSE 17:58:19 58° ENE 18:02:33 10° N visible
13 Dec 10.3 19:33:14 10° WSW 19:34:49 12° W 19:36:23 10° WNW visible
14 Dec 10.5 05:43:53 10° ENE 05:45:04 11° E 05:46:15 10° ESE visible
14 Dec 7.0 18:11:05 10° SSE 18:15:23 89° WSW 18:19:43 10° NNW visible
15 Dec 10.1 05:59:28 10° NE 06:02:20 17° E 06:05:11 10° SE visible
15 Dec 8.7 16:54:47 10° E 16:56:51 13° ENE 16:58:55 10° NE visible
15 Dec 7.7 18:28:16 10° S 18:32:29 56° W 18:36:44 10° NNW visible
16 Dec 9.5 06:15:54 10° NE 06:19:33 26° E 06:23:10 10° SSE visible
16 Dec 8.3 17:10:39 10° ESE 17:13:45 20° ENE 17:16:52 10° NNE visible
16 Dec 8.6 18:45:41 10° SSW 18:49:38 35° W 18:53:37 10° NNW visible
17 Dec 8.6 06:32:38 10° NNE 06:36:43 40° E 06:40:47 10° SSE visible
17 Dec 7.8 17:27:00 10° SE 17:30:42 29° ENE 17:34:26 10° N visible
17 Dec 9.4 19:03:22 10° SSW 19:06:49 23° W 19:10:16 10° NW visible
18 Dec 7.3 17:43:37 10° SE 17:47:42 44° ENE 17:51:48 10° N visible
18 Dec 10.0 19:21:31 10° SW 19:24:03 15° W 19:26:35 10° NW visible
19 Dec 6.9 18:00:28 10° SSE 18:04:44 71° ENE 18:09:01 10° N visible
